Regional Weather Roundup
Issued by NWS

Home | Current Version | Previous Version | Graphics & Text | Print | Product List | Glossary On
Versions: 1 2 3 4 5 6 7 8 9 10 11 12 13 14 15 16 17 18 19 20 21 22 23 24 25 26 27 28
000
ASUS45 KCYS 240010
RWRWY

WYOMING REGIONAL WEATHER ROUNDUP
NATIONAL WEATHER SERVICE CHEYENNE WY
600 PM MDT TUE MAY 23 2017

NOTE:  "FAIR" INDICATES FEW OR NO CLOUDS BELOW 12,000 FEET
WITH NO SIGNIFICANT WEATHER AND/OR OBSTRUCTIONS TO VISIBILITY.

WYZ001-240100-
YELLOWSTONE NATIONAL PARK

CITY           SKY/WX    TMP DP  RH WIND       PRES   REMARKS
LK YELLOWSTONE   N/A     60  34  37 SW8       30.20F
6HR MIN TEMP:  45; 6HR MAX TEMP:  63;

W YELLOWSTONE  NOT AVBL

$$
WYZ002>013-054>058-071-098>099-240100-
NORTHERN WYOMING

CITY           SKY/WX    TMP DP  RH WIND       PRES   REMARKS
JACKSON        SUNNY     68  32  26 W12       30.14F
CODY           FAIR      68  38  33 SE10      30.03F
GREYBULL       FAIR      73  26  17 NE3       29.98F
6HR MIN TEMP:  63; 6HR MAX TEMP:  74;

WORLAND        FAIR      70  25  18 VRB3      30.02F
6HR MIN TEMP:  61; 6HR MAX TEMP:  71;

SHERIDAN       FAIR      65  33  30 SE3       30.03F
6HR MIN TEMP:  62; 6HR MAX TEMP:  67;

BUFFALO        FAIR      62  33  33 CALM      30.08F
6HR MIN TEMP:  59; 6HR MAX TEMP:  64;

GILLETTE       FAIR      60  36  40 CALM      30.06F
6HR MIN TEMP:  56; 6HR MAX TEMP:  63;

HULETT         FAIR      61  32  33 NW3       30.08S
NEWCASTLE      FAIR      61  30  31 N12       30.07S

$$
WYZ014>020-022>026-101>103-240100-
CENTRAL WYOMING

CITY           SKY/WX    TMP DP  RH WIND       PRES   REMARKS
BIG PINEY      FAIR      68  31  25 N9        30.16F
6HR MIN TEMP:  57; 6HR MAX TEMP:  70;

PINEDALE       FAIR      64  30  27 NW15G24   30.16F
DUBOIS         FAIR      64  28  25 N10       30.13F
LANDER         NOT AVBL
RIVERTON       FAIR      65  28  24 E6        30.08F
6HR MIN TEMP:  59; 6HR MAX TEMP:  66;

CASPER         FAIR      61  36  39 CALM      30.10F
6HR MIN TEMP:  57; 6HR MAX TEMP:  63;

DOUGLAS        FAIR      59  31  34 N14       30.10F
6HR MIN TEMP:  54; 6HR MAX TEMP:  63;


$$
WYZ021-027>030-104>119-240100-
SOUTHERN WYOMING

CITY           SKY/WX    TMP DP  RH WIND       PRES   REMARKS
EVANSTON       FAIR      68  35  29 W15       30.19F
6HR MIN TEMP:  61; 6HR MAX TEMP:  69;

KEMMERER         N/A     64  34  32 W21       30.20S
ROCK SPRINGS   FAIR      68  30  24 W13G20    30.15F
6HR MIN TEMP:  54; 6HR MAX TEMP:  68;

DIXON            N/A     63  31  29 SW6       30.20F
RAWLINS        FAIR      61  15  16 NW12      30.16F
6HR MIN TEMP:  53; 6HR MAX TEMP:  64;

LARAMIE        FAIR      53  26  35 MISG      30.16S
6HR MIN TEMP:  45; 6HR MAX TEMP:  56;

CHEYENNE       FAIR      56  30  37 N15G25    30.11F
6HR MIN TEMP:  46; 6HR MAX TEMP:  57; 6HR PCP: TRACE;

TORRINGTON     FAIR      64  27  24 NW20G26   30.04F
6HR MIN TEMP:  57; 6HR MAX TEMP:  64;

PINE BLUFFS    FAIR      59  28  31 N21G31    30.10F

$$




USA.gov is the U.S. government's official web portal to all federal, state and local government web resources and services.